Location: Pescara
(42.4670°N, 14.2170°E)
Time: 17:41:44
(UTC+02:00)

ISS - Pass Details

Date: 14 May 2021
Orbit: 417 x 422 km, 51.6° (Epoch: 18 June)

Event Time Altitude Azimuth Distance (km) Brightness Sun altitude
Rises 21:11:19 0° 200° (SSW) 2,346 -0.1 -9.3°
Reaches altitude 10° 21:13:46 10° 182° (S) 1,489 -1.3 -9.7°
Maximum altitude 21:16:16 20° 133° (SE) 1,041 -2.4 -10.0°
Drops below altitude 10° 21:18:46 10° 85° (E) 1,499 -1.4 -10.4°
Enters shadow 21:20:47 - 70° (ENE) 2,193 -0.4 -10.7°
